When you browse on this site, cookies collect data to enhance your experience and personalize the content and advertising you see.
Visit our Privacy Policy to learn more. By continuing to use the site, you agree to this use of cookies and data.
  • In Deutschland
  • Länderverzeichnis
  • Für 7 Tage
  • Wassertemperatur
  • Satellitenkarten
  • Wetterkarte
  • Widgets
  • user-avatar
    Anmelden

    Stündliche Wetter Brasilia

    Heute, 17 November, Samstag

    Zeit Temperatur Niederschläge Wind Luftdruck Luftfeuchtigkeit
    00:00 +20°C° 1.5 mm 0 m/S 665 mmHg 92%
    01:00 +22°C° 2.2 mm 1 m/S 665 mmHg 92%
    02:00 +22°C° 2.2 mm 1 m/S 665 mmHg 93%
    03:00 +22°C° 2.2 mm 1 m/S 664 mmHg 94%
    04:00 +20°C° 6.1 mm 2 m/S 664 mmHg 94%
    05:00 +20°C° 6.1 mm 2 m/S 664 mmHg 95%
    06:00 +20°C° 6.1 mm 3 m/S 665 mmHg 96%
    07:00 +20°C° 3.4 mm 3 m/S 665 mmHg 95%
    08:00 +20°C° 3.4 mm 3 m/S 665 mmHg 95%
    09:00 +20°C° 3.4 mm 3 m/S 666 mmHg 94%
    10:00 +21°C° 1.6 mm 3 m/S 666 mmHg 93%
    11:00 +21°C° 1.6 mm 3 m/S 666 mmHg 92%
    12:00 +21°C° 1.6 mm 3 m/S 666 mmHg 91%
    13:00 +21°C° 1.2 mm 3 m/S 666 mmHg 91%
    14:00 +21°C° 1.2 mm 3 m/S 665 mmHg 91%
    15:00 +20°C° 1.2 mm 3 m/S 665 mmHg 92%
    16:00 +20°C° 0.4 mm 3 m/S 665 mmHg 92%
    17:00 +20°C° 0.4 mm 3 m/S 665 mmHg 93%
    18:00 +20°C° 0.4 mm 3 m/S 665 mmHg 93%
    19:00 +20°C° 0.4 mm 3 m/S 665 mmHg 94%
    20:00 +19°C° 0.4 mm 3 m/S 666 mmHg 94%
    21:00 +19°C° 0.4 mm 3 m/S 666 mmHg 95%
    22:00 +19°C° 0.8 mm 3 m/S 666 mmHg 95%
    23:00 +19°C° 0.8 mm 3 m/S 666 mmHg 95%

    Morgen, 18 November, Sonntag

    Zeit Temperatur Niederschläge Wind Luftdruck Luftfeuchtigkeit
    00:00 +19°C° 0.8 mm 3 m/S 666 mmHg 95%
    01:00 +19°C° 0.5 mm 3 m/S 666 mmHg 95%
    02:00 +19°C° 0.5 mm 3 m/S 665 mmHg 95%
    03:00 +18°C° 0.5 mm 3 m/S 665 mmHg 95%
    04:00 +18°C° 0.6 mm 3 m/S 665 mmHg 94%
    05:00 +18°C° 0.6 mm 3 m/S 665 mmHg 94%
    06:00 +18°C° 0.6 mm 3 m/S 665 mmHg 93%
    07:00 +19°C° 0.1 mm 3 m/S 666 mmHg 92%
    08:00 +19°C° 0.1 mm 3 m/S 666 mmHg 91%
    09:00 +20°C° 0.1 mm 3 m/S 667 mmHg 90%
    10:00 +20°C° 0.3 mm 3 m/S 667 mmHg 90%
    11:00 +20°C° 0.3 mm 3 m/S 667 mmHg 91%
    12:00 +20°C° 0.3 mm 2 m/S 667 mmHg 91%
    13:00 +21°C° 0.2 mm 2 m/S 666 mmHg 89%
    14:00 +21°C° 0.2 mm 2 m/S 665 mmHg 87%
    15:00 +23°C° 0.2 mm 2 m/S 665 mmHg 85%
    16:00 +23°C° 0.5 mm 2 m/S 665 mmHg 87%
    17:00 +21°C° 0.5 mm 2 m/S 665 mmHg 88%
    18:00 +22°C° 0.5 mm 1 m/S 665 mmHg 89%
    19:00 +22°C° 0.2 mm 1 m/S 665 mmHg 90%
    20:00 +21°C° 0.2 mm 1 m/S 666 mmHg 90%
    21:00 +21°C° 0.2 mm 1 m/S 666 mmHg 91%
    22:00 +21°C° 0.9 mm 1 m/S 666 mmHg 91%
    23:00 +21°C° 0.9 mm 1 m/S 666 mmHg 92%

    übermorgen, 19 November, Montag

    Zeit Temperatur Niederschläge Wind Luftdruck Luftfeuchtigkeit
    00:00 +21°C° 0.9 mm 1 m/S 666 mmHg 92%
    01:00 +20°C° 0.6 mm 1 m/S 665 mmHg 92%
    02:00 +20°C° 0.6 mm 1 m/S 665 mmHg 93%
    03:00 +20°C° 0.6 mm 1 m/S 664 mmHg 93%
    04:00 +20°C° 0.1 mm 1 m/S 664 mmHg 93%
    05:00 +20°C° 0.1 mm 1 m/S 664 mmHg 93%
    06:00 +20°C° 0.1 mm 1 m/S 664 mmHg 93%
    07:00 +20°C° 0.2 mm 2 m/S 665 mmHg 90%
    08:00 +21°C° 0.2 mm 2 m/S 665 mmHg 88%
    09:00 +21°C° 0.2 mm 2 m/S 666 mmHg 86%
    10:00 +22°C° 0.4 mm 3 m/S 666 mmHg 82%
    11:00 +24°C° 0.4 mm 3 m/S 666 mmHg 78%
    12:00 +26°C° 0.4 mm 3 m/S 666 mmHg 74%
    13:00 +25°C° 0.9 mm 3 m/S 665 mmHg 75%
    14:00 +25°C° 0.9 mm 3 m/S 664 mmHg 76%
    15:00 +25°C° 0.9 mm 3 m/S 664 mmHg 77%
    16:00 +25°C° 1.3 mm 2 m/S 663 mmHg 80%
    17:00 +24°C° 1.3 mm 2 m/S 663 mmHg 84%
    18:00 +23°C° 1.3 mm 1 m/S 663 mmHg 88%
    19:00 +23°C° 0.8 mm 2 m/S 664 mmHg 88%
    20:00 +21°C° 0.8 mm 2 m/S 664 mmHg 89%
    21:00 +21°C° 0.8 mm 2 m/S 665 mmHg 89%
    22:00 +20°C° 0.2 mm 2 m/S 665 mmHg 90%
    23:00 +21°C° 0.2 mm 1 m/S 665 mmHg 90%

    20 November, Dienstag

    Zeit Temperatur Niederschläge Wind Luftdruck Luftfeuchtigkeit
    00:00 +21°C° 0.2 mm 1 m/S 665 mmHg 91%
    01:00 +21°C° 0.3 mm 1 m/S 664 mmHg 91%
    02:00 +20°C° 0.3 mm 2 m/S 664 mmHg 92%
    03:00 +20°C° 0.3 mm 2 m/S 664 mmHg 92%
    04:00 +20°C° 0.2 mm 2 m/S 664 mmHg 92%
    05:00 +20°C° 0.2 mm 2 m/S 664 mmHg 92%
    06:00 +19°C° 0.2 mm 2 m/S 665 mmHg 92%
    07:00 +21°C° 0.2 mm 2 m/S 665 mmHg 87%
    08:00 +22°C° 0.2 mm 3 m/S 666 mmHg 81%
    09:00 +25°C° 0.2 mm 4 m/S 667 mmHg 75%
    10:00 +25°C° 0.4 mm 3 m/S 667 mmHg 73%
    11:00 +26°C° 0.4 mm 3 m/S 666 mmHg 70%
    12:00 +27°C° 0.4 mm 3 m/S 666 mmHg 68%
    13:00 +26°C° 1.1 mm 3 m/S 666 mmHg 69%
    14:00 +26°C° 1.1 mm 2 m/S 665 mmHg 70%
    15:00 +26°C° 1.1 mm 2 m/S 665 mmHg 71%
    16:00 +25°C° 1.7 mm 1 m/S 665 mmHg 76%
    17:00 +24°C° 1.7 mm 1 m/S 664 mmHg 81%
    18:00 +21°C° 1.7 mm 0 m/S 664 mmHg 87%
    19:00 +20°C° 0.7 mm 0 m/S 665 mmHg 87%
    20:00 +22°C° 0.7 mm 1 m/S 665 mmHg 87%
    21:00 +22°C° 0.7 mm 1 m/S 665 mmHg 87%
    22:00 +21°C° 0.5 mm 1 m/S 665 mmHg 89%
    23:00 +20°C° 0.5 mm 2 m/S 665 mmHg 90%

    21 November, Mittwoch

    Zeit Temperatur Niederschläge Wind Luftdruck Luftfeuchtigkeit
    00:00 +20°C° 0.5 mm 2 m/S 665 mmHg 91%
    01:00 +20°C° 1.7 mm 2 m/S 665 mmHg 91%
    02:00 +20°C° 1.7 mm 2 m/S 664 mmHg 91%
    03:00 +20°C° 1.7 mm 2 m/S 664 mmHg 92%
    04:00 +20°C° 1.5 mm 2 m/S 664 mmHg 92%
    05:00 +19°C° 1.5 mm 2 m/S 665 mmHg 92%
    06:00 +19°C° 1.5 mm 2 m/S 665 mmHg 92%
    07:00 +19°C° 0.9 mm 2 m/S 666 mmHg 92%
    08:00 +19°C° 0.9 mm 2 m/S 666 mmHg 92%
    09:00 +19°C° 0.9 mm 2 m/S 667 mmHg 92%
    10:00 +20°C° 0.2 mm 3 m/S 666 mmHg 90%
    11:00 +21°C° 0.2 mm 3 m/S 666 mmHg 87%
    12:00 +21°C° 0.2 mm 3 m/S 666 mmHg 85%
    13:00 +22°C° 0.4 mm 3 m/S 665 mmHg 85%
    14:00 +22°C° 0.4 mm 3 m/S 665 mmHg 84%
    15:00 +22°C° 0.4 mm 3 m/S 665 mmHg 84%
    16:00 +21°C° 0.5 mm 3 m/S 665 mmHg 86%
    17:00 +21°C° 0.5 mm 3 m/S 665 mmHg 88%
    18:00 +20°C° 0.5 mm 3 m/S 665 mmHg 90%
    19:00 +20°C° 0.3 mm 3 m/S 665 mmHg 91%
    20:00 +19°C° 0.3 mm 3 m/S 665 mmHg 92%
    21:00 +19°C° 0.3 mm 3 m/S 665 mmHg 92%
    22:00 +19°C° 1 mm 3 m/S 665 mmHg 92%
    23:00 +18°C° 1 mm 3 m/S 665 mmHg 93%

    22 November, Donnerstag

    Zeit Temperatur Niederschläge Wind Luftdruck Luftfeuchtigkeit
    00:00 +18°C° 1 mm 3 m/S 665 mmHg 93%
    01:00 +18°C° 0.4 mm 3 m/S 665 mmHg 93%
    02:00 +18°C° 0.4 mm 3 m/S 664 mmHg 93%
    03:00 +18°C° 0.4 mm 3 m/S 664 mmHg 94%
    04:00 +18°C° 0.1 mm 3 m/S 664 mmHg 94%
    05:00 +18°C° 0.1 mm 3 m/S 664 mmHg 94%
    06:00 +18°C° 0.1 mm 4 m/S 665 mmHg 94%
    07:00 +19°C° 0.4 mm 4 m/S 665 mmHg 92%
    08:00 +19°C° 0.4 mm 4 m/S 666 mmHg 90%
    09:00 +20°C° 0.4 mm 4 m/S 666 mmHg 88%
    10:00 +20°C° 0.2 mm 4 m/S 666 mmHg 86%
    11:00 +21°C° 0.2 mm 4 m/S 666 mmHg 84%
    12:00 +21°C° 0.2 mm 4 m/S 665 mmHg 82%
    13:00 +22°C° 0.5 mm 4 m/S 665 mmHg 81%
    14:00 +22°C° 0.5 mm 4 m/S 665 mmHg 80%
    15:00 +22°C° 0.5 mm 3 m/S 664 mmHg 79%
    16:00 +21°C° 0.6 mm 3 m/S 664 mmHg 83%
    17:00 +20°C° 0.6 mm 3 m/S 664 mmHg 87%
    18:00 +19°C° 0.6 mm 2 m/S 664 mmHg 91%
    19:00 +19°C° 0.4 mm 2 m/S 664 mmHg 92%
    20:00 +19°C° 0.4 mm 2 m/S 664 mmHg 93%
    21:00 +18°C° 0.4 mm 2 m/S 665 mmHg 94%
    22:00 +18°C° 0.2 mm 2 m/S 664 mmHg 95%
    23:00 +18°C° 0.2 mm 2 m/S 664 mmHg 95%
    Mehr zeigen